Showing default

PELICAN-8 300F, 69018

Orbit data source: Space-Track

PELICAN-8 300F, 69018 is an American payload satellite in SSO that was launched on Sun, 03 May 2026 UTC via an FALCON 9 launch vehicle from the Air Force Western Test Range (AFWTR). Payload-class satellites include a variety of spacecraft equipped with specific instruments for various scientific and technological missions. These include communications satellites like Starlink; space stations such as the ISS; scientific satellites like the Hubble; Earth observation satellites from companies like Planet Labs, Umbra, and HawkEye 360; GPS; miniature CubeSats for education and research; and military/defense satellites.

Loading next visibility...
Identifier
69018, 2026-100AQ
Orbit
SSO
Country
Flag of USUS
Related business
None
Manufacturer
Planet
Mission
Operational Commercial Imaging
Bus & Motor
PELICAN, XE AOCS
Mass
160 kg wet, 146 kg dry
Launch date (UTC)
2026-05-03 (5 months ago)
Launch vehicle
FALCON 9
Launch site
Air Force Western Test Range (AFWTR)
Object type
Payload
Rocket body
Debris
Shape & HBR
Box + 2 Pan, 1.0 m
Radar Cross Section
1.955 m², Large (>1 m²)

Expand to show TLE details & history
Last TLE update: 19 hours ago

TLE from 19 hours ago
0 PELICAN-8 300F
1 69018U 26100AQ  26265.71767522  .00009312  00000-0  34982-3 0  9995
2 69018  97.3105 161.9046 0003796  95.4887 264.6785 15.27390071 21684
Epoch: 2026-09-22T17:13Z
TLE epoch observation values (Epoch: 2026-09-22T17:13:27.139Z)
Latitude
-0.00004°
Longitude
-98.03761°
Altitude
486.964 km
Speed
7.622 km/s
True Right ascension
10h 47m 37s
True Declination
0° 00' 00"
Sunlit
Object was in daylight at epoch
Visualization orbit readout
Latitude
Unknown
Longitude
Unknown
Altitude
Unknown
Speed
Unknown
Apparent Right ascension
Unknown
Apparent Declination
Unknown
Sunlit
N/A
Visualization observer readout
Local Sidereal Time
05:22:36
Azimuth
Unknown
Elevation
Unknown
Doppler factor
Unknown
Orbital elements
Apogee altitude
483.173 km
Perigee altitude
477.966 km
Semi-major axis
6,858.707 km
Eccentricity
0.00038
Inclination
97.3105°
RAAN
161.9046°
Arg. of periapsis
95.4887°
True anomaly
264.63519°
Mean anomaly
264.6785°
Eccentric anomaly
264.65685°
Mean motion
3.82102 °/min
Orbital period
94.22 mins
BSTAR
0.00034982
Loading maneuver chart data...
Computing Atmospheric mass density...
Loading historical data...
Loading historical data...
Loading historical data...
Loading historical data...
Loading historical data...
Loading historical data...
Loading historical data...

Documentation

Showing up to 5 results
|